�������C�����ː����j�^�v���󋵏��
Date,Time,Cs137(Bq/L),Cs134(Bq/L),�S��(Bq/L)
2016/12/20,00:00,0.78,0.080,ND
2016/12/20,00:10,0.76,0.079,ND
2016/12/20,00:20,0.74,0.086,ND
2016/12/20,00:30,0.74,0.085,ND
2016/12/20,00:40,0.71,0.13,ND
2016/12/20,00:50,0.75,0.092,ND
2016/12/20,01:00,0.75,0.092,ND
2016/12/20,01:10,0.76,0.090,ND
2016/12/20,01:20,0.78,0.092,ND
2016/12/20,01:30,0.78,0.092,9.9
2016/12/20,01:40,0.78,0.075,9.0
2016/12/20,01:50,0.79,0.080,ND
2016/12/20,02:00,0.76,0.079,ND
2016/12/20,02:10,0.73,0.089,ND
2016/12/20,02:20,0.77,0.075,ND
2016/12/20,02:30,0.78,0.071,ND
2016/12/20,02:40,0.77,0.068,ND
2016/12/20,02:50,0.76,0.071,ND
2016/12/20,03:00,0.81,0.067,ND
2016/12/20,03:10,0.82,0.061,ND
2016/12/20,03:20,0.82,0.065,ND
2016/12/20,03:30,0.81,0.073,ND
2016/12/20,03:40,0.82,0.066,ND
2016/12/20,03:50,0.82,0.070,ND
2016/12/20,04:00,0.78,0.081,ND
2016/12/20,04:10,0.78,0.085,ND
2016/12/20,04:20,0.76,0.080,ND
2016/12/20,04:30,0.75,0.075,ND
2016/12/20,04:40,0.78,0.075,ND
2016/12/20,04:50,0.80,0.068,ND
2016/12/20,05:00,0.80,0.059,ND
2016/12/20,05:10,0.80,0.051,ND
2016/12/20,05:20,0.81,0.052,ND
2016/12/20,05:30,0.81,0.054,ND
2016/12/20,05:40,0.80,0.057,ND
2016/12/20,05:50,0.80,0.056,ND
2016/12/20,06:00,0.81,0.056,ND
2016/12/20,06:10,0.80,0.061,ND
2016/12/20,06:20,0.81,0.053,ND
2016/12/20,06:30,0.81,0.056,ND
2016/12/20,06:40,0.82,0.052,ND
2016/12/20,06:50,0.81,0.056,ND
2016/12/20,07:00,0.81,0.064,ND
2016/12/20,07:10,0.81,0.066,ND
2016/12/20,07:20,0.80,0.083,ND
2016/12/20,07:30,0.78,0.072,ND
2016/12/20,07:40,0.77,0.073,ND
2016/12/20,07:50,0.79,0.067,ND
2016/12/20,08:00,0.75,0.076,ND
2016/12/20,08:10,0.77,0.074,ND
2016/12/20,08:20,0.78,0.069,ND
2016/12/20,08:30,0.78,0.076,ND
2016/12/20,08:40,0.76,0.083,ND
2016/12/20,08:50,0.73,0.088,ND
2016/12/20,09:00,0.73,0.083,ND
2016/12/20,09:10,0.70,0.078,ND
2016/12/20,09:20,0.70,0.081,ND
2016/12/20,09:30,0.72,0.080,ND
2016/12/20,09:40,0.75,0.080,ND
2016/12/20,09:50,0.73,0.077,ND
2016/12/20,10:00,0.75,0.075,ND
2016/12/20,10:10,0.77,0.082,ND
2016/12/20,10:20,0.77,0.080,ND
2016/12/20,10:30,0.76,0.074,ND
2016/12/20,10:40,0.75,0.080,ND
2016/12/20,10:50,0.76,0.077,ND
2016/12/20,11:00,0.75,0.067,ND
2016/12/20,11:10,0.76,0.055,ND
2016/12/20,11:20,0.78,0.061,ND
2016/12/20,11:30,0.79,0.071,ND
2016/12/20,11:40,0.78,0.072,ND
2016/12/20,11:50,0.77,0.084,ND
2016/12/20,12:00,0.76,0.093,ND
2016/12/20,12:10,0.77,0.092,ND
2016/12/20,12:20,0.76,0.086,ND
2016/12/20,12:30,0.76,0.085,ND
2016/12/20,12:40,0.76,0.083,ND
2016/12/20,12:50,0.79,0.080,ND
2016/12/20,13:00,0.81,0.076,ND
2016/12/20,13:10,0.80,0.075,ND
2016/12/20,13:20,0.84,0.066,ND
2016/12/20,13:30,0.84,0.067,ND
2016/12/20,13:40,0.83,0.067,ND
2016/12/20,13:50,0.84,0.067,ND
2016/12/20,14:00,0.83,0.076,ND
2016/12/20,14:10,0.84,0.078,ND
2016/12/20,14:20,0.84,0.089,ND
2016/12/20,14:30,0.84,0.090,ND
2016/12/20,14:40,0.86,0.083,ND
2016/12/20,14:50,0.86,0.079,ND
2016/12/20,15:00,0.86,0.078,ND
2016/12/20,15:10,0.88,0.070,ND
2016/12/20,15:20,0.86,0.063,ND
2016/12/20,15:30,0.86,0.055,ND
2016/12/20,15:40,0.87,0.056,ND
2016/12/20,15:50,0.86,0.058,ND
2016/12/20,16:00,0.86,0.056,ND
2016/12/20,16:10,0.83,0.060,ND
2016/12/20,16:20,0.82,0.069,ND
2016/12/20,16:30,0.83,0.063,ND
2016/12/20,16:40,0.80,0.068,ND
2016/12/20,16:50,0.78,0.073,ND
2016/12/20,17:00,0.76,0.075,ND
2016/12/20,17:10,0.77,0.085,ND
2016/12/20,17:20,0.76,0.081,ND
2016/12/20,17:30,0.77,0.079,ND
2016/12/20,17:40,0.76,0.095,ND
2016/12/20,17:50,0.81,0.084,ND
2016/12/20,18:00,0.81,0.085,ND
2016/12/20,18:10,0.82,0.085,ND
2016/12/20,18:20,0.80,0.094,ND
2016/12/20,18:30,0.80,0.099,ND
2016/12/20,18:40,0.80,0.091,ND
2016/12/20,18:50,0.76,0.10,ND
2016/12/20,19:00,0.77,0.10,ND
2016/12/20,19:10,0.76,0.11,ND
2016/12/20,19:20,0.76,0.098,ND
2016/12/20,19:30,0.74,0.094,ND
2016/12/20,19:40,0.75,0.092,ND
2016/12/20,19:50,0.76,0.084,ND
2016/12/20,20:00,0.78,0.079,ND
2016/12/20,20:10,0.77,0.062,ND
2016/12/20,20:20,0.78,0.062,ND
2016/12/20,20:30,0.78,0.056,ND
2016/12/20,20:40,0.80,0.046,ND
2016/12/20,20:50,0.81,0.054,ND
2016/12/20,21:00,0.79,0.059,ND
2016/12/20,21:10,0.82,0.061,ND
2016/12/20,21:20,0.82,0.064,ND
2016/12/20,21:30,0.81,0.069,ND
2016/12/20,21:40,0.76,0.089,ND
2016/12/20,21:50,0.76,0.079,ND
2016/12/20,22:00,0.76,0.083,ND
2016/12/20,22:10,0.73,0.088,ND
2016/12/20,22:20,0.74,0.081,ND
2016/12/20,22:30,0.75,0.075,ND
2016/12/20,22:40,0.76,0.069,ND
2016/12/20,22:50,0.78,0.083,ND
2016/12/20,23:00,0.77,0.079,ND
2016/12/20,23:10,0.77,0.084,ND
2016/12/20,23:20,0.77,0.079,ND
2016/12/20,23:30,0.80,0.085,ND
2016/12/20,23:40,0.79,0.067,ND
2016/12/20,23:50,0.75,0.075,ND
